Regional Weather Roundup
Issued by NWS

Home | Current Version | Previous Version | Graphics & Text | Print | Product List | Glossary Off
Versions: 1 2 3 4 5 6 7 8 9 10 11 12 13 14 15 16 17 18 19 20 21 22 23 24 25 26 27 28 29 30 31 32 33 34 35 36 37 38 39 40 41 42 43 44 45 46 47 48 49 50

000
ASUS43 KDTX 310001
RWRMI
MICHIGAN HOURLY REGIONAL WEATHER ROUNDUP
NATIONAL WEATHER SERVICE DETROIT/PONTIAC MI
800 PM EDT MON MAY 30 2016

NOTE: "FAIR" INDICATES FEW OR NO CLOUDS BELOW 12,000 FEET WITH NO
SIGNIFICANT WEATHER AND/OR OBSTRUCTION TO VISIBILITY.

MIZ047>049-052>055-059>063-066>070-074>076-081>083-310100-
SOUTHEAST LOWER MICHIGAN

CITY           SKY/WX    TMP DP  RH WIND       PRES   REMARKS
ADRIAN         CLEAR     81  51  35 NW5       29.96S
6HR MIN TEMP:  81; 6HR MAX TEMP:  86;

ALMA           SUNNY     76  49  38 MISG      29.97R
ANN ARBOR      CLEAR     79  52  38 NW8       29.96R
BAD AXE        CLEAR     77  49  37 NW6       29.95R
CARO           PTCLDY    78  52  40 NW8       29.94R
DETROIT CITY   CLEAR     82  51  34 NW7       29.94S
6HR MIN TEMP:  80; 6HR MAX TEMP:  85;

DETROIT        PTCLDY    81  53  37 NW9       29.95R
6HR MIN TEMP:  80; 6HR MAX TEMP:  86;

FLINT          PTSUNNY   82  54  37 W14       29.95S
6HR MIN TEMP:  80; 6HR MAX TEMP:  86;

GROSSE ILE     CLEAR     72  64  78 S5        29.94R
HILLSDALE      SUNNY     80  40  24 NW10      29.99R
6HR MIN TEMP:  80; 6HR MAX TEMP:  83;

HOWELL         SUNNY     79  47  32 W6        29.97R

CITY           SKY/WX    TMP DP  RH WIND       PRES   REMARKS
JACKSON        SUNNY     76  50  40 NW8       29.98R
6HR MIN TEMP:  76; 6HR MAX TEMP:  82;

LAMBERTVILLE   CLEAR     83  51  32 NW3       29.96R
6HR MIN TEMP:  82; 6HR MAX TEMP:  86;

LANSING        SUNNY     79  52  38 W10       29.98R
6HR MIN TEMP:  78; 6HR MAX TEMP:  83;

LAPEER         FAIR      78  50  37 NW6       29.95S
6HR MIN TEMP:  78; 6HR MAX TEMP:  83;

MASON          SUNNY     78  52  40 W9        29.97S
MONROE         CLEAR     76  63  63 SE6       29.94R
6HR MIN TEMP:  76; 6HR MAX TEMP:  85;

PONTIAC        PTCLDY    80  52  37 W9        29.95S
6HR MIN TEMP:  78; 6HR MAX TEMP:  83;

PORT HOPE        N/A     72  58  61 VRB3      29.92R
6HR MIN TEMP:  66; 6HR MAX TEMP:  80;

PORT HURON     CLEAR     75  63  64 CALM      29.94S
TRI CITIES     MOSUNNY   79  49  34 W8        29.96R
6HR MIN TEMP:  78; 6HR MAX TEMP:  84;

MIDLAND        FAIR      77  47  34 NW6       29.95R
6HR MIN TEMP:  77; 6HR MAX TEMP:  83;

TROY           CLEAR     82  50  32 W7        29.96S
SAGINAW HB     SUNNY     79  45  29 W10       29.94R
$$
MIZ043>046-050>051-056>058-064>065-071>073-077>080-310100-
SOUTHWEST LOWER MICHIGAN

CITY           SKY/WX    TMP DP  RH WIND       PRES   REMARKS
BATTLE CREEK   SUNNY     77  54  44 NW6       29.99S
6HR MIN TEMP:  76; 6HR MAX TEMP:  82;

BENTON HARBOR  SUNNY     79  56  45 CALM      29.97S
6HR MIN TEMP:  76; 6HR MAX TEMP:  82;

BIG RAPIDS     SUNNY     73  45  36 N6        29.99R
6HR MIN TEMP:  73; 6HR MAX TEMP:  79;

COLDWATER      SUNNY     79  47  32 NW8       29.98S
6HR MIN TEMP:  79; 6HR MAX TEMP:  83;

FREMONT        FAIR      75  45  33 NW8       29.99R
HOLLAND        SUNNY     77  56  48 NW5       30.00R
6HR MIN TEMP:  77; 6HR MAX TEMP:  81;

GRAND RAPIDS   MOSUNNY   79  52  38 W10       29.98S
6HR MIN TEMP:  79; 6HR MAX TEMP:  83;

IONIA          FAIR      77  52  41 W6        29.98R
6HR MIN TEMP:  77; 6HR MAX TEMP:  83;

KALAMAZOO      SUNNY     78  54  43 NW8       29.99R
6HR MIN TEMP:  78; 6HR MAX TEMP:  84;

LUDINGTON      SUNNY     67  57  71 W8        30.00R
6HR MIN TEMP:  67; 6HR MAX TEMP:  76;

MARSHALL       MOSUNNY   78  52  39 W6        29.98R
6HR MIN TEMP:  78; 6HR MAX TEMP:  84;

MOUNT PLEASANT SUNNY     76  44  31 NW5       29.97R
6HR MIN TEMP:  76; 6HR MAX TEMP:  81;

MUSKEGON       MOSUNNY   73  56  54 W7        29.99S
6HR MIN TEMP:  73; 6HR MAX TEMP:  79;

SOUTH HAVEN    SUNNY     77  57  50 N5        29.98S
$$
MIZ016>042-310100-
NORTHERN LOWER MICHIGAN

CITY           SKY/WX    TMP DP  RH WIND       PRES   REMARKS
ALPENA         SUNNY     75  48  38 NW6       29.94S
6HR MIN TEMP:  75; 6HR MAX TEMP:  80;

BEAVER ISLAND  SUNNY     64  51  62 W7        29.96R
6HR MIN TEMP:  64; 6HR MAX TEMP:  72;

BELLAIRE       SUNNY     74  47  38 CALM      29.96S
6HR MIN TEMP:  73; 6HR MAX TEMP:  75;

CADILLAC       SUNNY     72  47  40 NW8       30.00R
CHARLEVOIX     SUNNY     72  50  45 SW6       29.97F
FRANKFORT      SUNNY     73  56  54 CALM      29.97R
GAYLORD        SUNNY     72  46  39 W9        29.97S
6HR MIN TEMP:  72; 6HR MAX TEMP:  75;

GRAYLING       SUNNY     73  47  40 W9        29.99S
HARBOR SPRINGS SUNNY     71  49  46 W5        29.95S
HOUGHTON LAKE  SUNNY     73  43  33 NW8       29.99R
6HR MIN TEMP:  73; 6HR MAX TEMP:  78;

OSCODA         SUNNY     72  53  51 E6        29.94R
6HR MIN TEMP:  72; 6HR MAX TEMP:  85;

PELLSTON       SUNNY     72  49  44 W5        29.95S
6HR MIN TEMP:  72; 6HR MAX TEMP:  76;

ROGERS CITY    SUNNY     72  47  41 W7        29.95R
TRAVERSE CITY  MOSUNNY   76  48  37 W8        29.95S
6HR MIN TEMP:  76; 6HR MAX TEMP:  78;

$$
MIZ007>008-015-310100-
EASTERN UPPER MICHIGAN

CITY           SKY/WX    TMP DP  RH WIND       PRES   REMARKS
KINROSS          N/A     66  52  59 NW8       29.94S
6HR MIN TEMP:  64; 6HR MAX TEMP:  73;

MACKINAC ISLAN SUNNY     64  51  62 W8        29.95R
6HR MIN TEMP:  64; 6HR MAX TEMP:  67;

NEWBERRY       SUNNY     69  48  47 W12G20    29.94S
6HR MIN TEMP:  69; 6HR MAX TEMP:  73;

S. S. MARIE    SUNNY     65  49  56 NW9       29.93F
6HR MIN TEMP:  65; 6HR MAX TEMP:  69;

MUNISING         N/A     62  50  64 NE17      29.97R
6HR MIN TEMP:  62; 6HR MAX TEMP:  69;

$$
MIZ004>006-011>014-085-310100-
CENTRAL UPPER MICHIGAN

CITY           SKY/WX    TMP DP  RH WIND       PRES   REMARKS
MANISTIQUE     CLOUDY    66  55  67 CALM      29.95S
6HR MIN TEMP:  62; 6HR MAX TEMP:  77;

ESCANABA         N/A     79  43  27 NW8       29.92R
6HR MIN TEMP:  75; 6HR MAX TEMP:  81;

MENOMINEE      MOSUNNY   79  47  32 N5        29.95R
6HR MIN TEMP:  76; 6HR MAX TEMP:  80;

SAWYER-GWINN   SUNNY     73  39  29 NW16G23   29.97R
$$
MIZ001>003-009>011-084-310100-
WESTERN UPPER MICHIGAN

CITY           SKY/WX    TMP DP  RH WIND       PRES   REMARKS
IRON MOUNTAIN  SUNNY     77  41  27 NW9       29.95R
6HR MIN TEMP:  75; 6HR MAX TEMP:  80;

HOUGHTON       SUNNY     66  48  52 N8        29.97R
6HR MIN TEMP:  65; 6HR MAX TEMP:  74;

COPPER HARBOR    N/A     53  46  77 NE7       29.99R
6HR MIN TEMP:  51; 6HR MAX TEMP:  71;

IRONWOOD       SUNNY     73  45  35 NE7       29.94S
6HR MIN TEMP:  73; 6HR MAX TEMP:  75;

$$

ABBREVIATIONS USED IN REMARKS
   TC - TEMPERATURE IN CELSIUS
  WCI - WIND CHILL INDEX
   HX - HEAT INDEX
  VSB - VISIBILITY





USA.gov is the U.S. government's official web portal to all federal, state and local government web resources and services.